Change the Weather History Date:

Saturday, October 19, 2013

  Actual Average Record
Temperature  
Mean Temperature 44 °F -  
Max Temperature 52 °F 52 °F 72 °F (1953)
Min Temperature 37 °F 37 °F 21 °F (1959)
Degree Days  
Heating Degree Days 20    
Moisture  
Dew Point 37 °F    
Average Humidity 73    
Maximum Humidity 95    
Minimum Humidity 46    
Precipitation  
Precipitation 0.00 in - - ()
Sea Level Pressure  
Sea Level Pressure 29.73 in    
Wind  
Wind Speed 4 mph (WNW)    
Max Wind Speed 18 mph    
Max Gust Speed 24 mph    
Visibility 10 miles    
Events Rain    
Averages and records for this station are not official NWS values.
T = Trace of Precipitation, MM = Missing Value Source: NWS Daily Summary

Daily Weather History Graph

Daily Weather History Graph

Search for Another Location

Airport or City:

Trip Planner

Search our weather history database for the weather conditions in past years. The results will help you decide how hot, cold, wet, or windy it might be!

Date:

Astronomy

Oct. 19, 2013 Rise Set
Actual Time 8:04 AM EDT 6:49 PM EDT
Civil Twilight 7:34 AM EDT 7:19 PM EDT
Nautical Twilight 6:59 AM EDT 7:53 PM EDT
Astronomical Twilight 6:25 AM EDT 8:28 PM EDT
Moon 7:12 PM EDT (10/19) 8:44 AM EDT (10/19)
Length of Visible Light 11h 44m
Length of Day
10h 44m
Waxing Gibbous, 99% of the Moon is Illuminated
Oct 19
Waxing Gibbous
Oct 26
Last Quarter
Nov 3
New
Nov 10
First Quarter
Nov 17
Full

Hourly Weather History & Observations

Time (EDT) Temp. Windchill Dew Point Humidity Pressure Visibility Wind Dir Wind Speed Gust Speed Precip Events Conditions
12:15 AM 46.0 °F 43.9 °F 38.5 °F 75% 29.81 in 10.0 mi North 4.6 mph - N/A   Overcast
12:36 AM 45.1 °F - 38.3 °F 77% 29.80 in 10.0 mi Calm Calm - N/A   Mostly Cloudy
12:55 AM 44.4 °F - 38.3 °F 79% 29.80 in 10.0 mi Calm Calm - N/A   Scattered Clouds
1:15 AM 44.8 °F - 38.3 °F 78% 29.80 in 10.0 mi Calm Calm - N/A   Scattered Clouds
1:35 AM 44.6 °F - 38.3 °F 79% 29.80 in 10.0 mi Calm Calm - N/A   Mostly Cloudy
1:55 AM 45.0 °F 43.5 °F 37.9 °F 76% 29.79 in 10.0 mi NNW 3.5 mph - N/A   Scattered Clouds
2:16 AM 45.5 °F - 38.5 °F 76% 29.79 in 10.0 mi Calm Calm - N/A   Mostly Cloudy
2:35 AM 45.5 °F 43.2 °F 38.5 °F 76% 29.79 in 10.0 mi North 4.6 mph - N/A   Mostly Cloudy
2:56 AM 45.7 °F 44.4 °F 38.5 °F 76% 29.78 in 10.0 mi NNW 3.5 mph - N/A   Overcast
3:16 AM 45.9 °F 43.6 °F 38.7 °F 76% 29.78 in 10.0 mi NW 4.6 mph - N/A   Overcast
3:35 AM 46.4 °F 45.2 °F 38.5 °F 74% 29.78 in 10.0 mi NNW 3.5 mph - N/A   Overcast
3:56 AM 46.2 °F 45.0 °F 38.8 °F 75% 29.77 in 10.0 mi NNW 3.5 mph - N/A   Overcast
4:15 AM 45.9 °F 44.6 °F 39.2 °F 78% 29.77 in 10.0 mi NW 3.5 mph - N/A   Overcast
4:35 AM 45.9 °F 42.3 °F 39.4 °F 78% 29.76 in 10.0 mi NW 6.9 mph - N/A   Overcast
4:56 AM 45.7 °F 44.4 °F 39.0 °F 78% 29.76 in 10.0 mi NW 3.5 mph - N/A   Overcast
5:15 AM 45.9 °F - 39.4 °F 78% 29.75 in 10.0 mi Calm Calm - N/A   Overcast
5:35 AM 45.9 °F 43.6 °F 38.7 °F 76% 29.75 in 10.0 mi NNW 4.6 mph - N/A   Overcast
5:55 AM 45.9 °F 43.6 °F 39.2 °F 78% 29.75 in 10.0 mi NNW 4.6 mph - N/A   Overcast
6:15 AM 45.9 °F 42.9 °F 38.5 °F 75% 29.74 in 10.0 mi NW 5.8 mph - N/A   Overcast
6:36 AM 45.5 °F 42.5 °F 37.8 °F 74% 29.74 in 10.0 mi NW 5.8 mph - N/A   Overcast
6:55 AM 45.9 °F 44.6 °F 37.8 °F 73% 29.73 in 10.0 mi NW 3.5 mph - N/A   Overcast
7:15 AM 45.9 °F 43.6 °F 38.3 °F 75% 29.73 in 10.0 mi NW 4.6 mph - N/A   Drizzle
7:36 AM 44.8 °F 41.6 °F 40.3 °F 84% 29.73 in 10.0 mi West 5.8 mph - N/A Rain Rain
7:55 AM 44.2 °F 40.3 °F 40.1 °F 85% 29.73 in 10.0 mi NW 6.9 mph - N/A Rain Light Rain
8:15 AM 43.9 °F - 38.8 °F 82% 29.74 in 10.0 mi Calm Calm - N/A   Mostly Cloudy
8:36 AM 43.9 °F 40.5 °F 38.3 °F 81% 29.74 in 10.0 mi NW 5.8 mph - N/A   Mostly Cloudy
8:55 AM 44.6 °F 41.4 °F 38.3 °F 79% 29.74 in 10.0 mi NW 5.8 mph - N/A   Mostly Cloudy
9:55 AM 45.0 °F 42.6 °F 39.4 °F 81% 29.75 in 10.0 mi North 4.6 mph - N/A   Overcast
10:16 AM 45.0 °F 41.2 °F 39.4 °F 81% 29.75 in 10.0 mi NNW 6.9 mph - N/A   Overcast
10:35 AM 45.3 °F 43.0 °F 39.6 °F 80% 29.75 in 10.0 mi NW 4.6 mph - N/A   Overcast
10:55 AM 45.5 °F 43.2 °F 38.3 °F 76% 29.74 in 10.0 mi NW 4.6 mph - N/A   Overcast
11:15 AM 46.4 °F 45.2 °F 38.5 °F 74% 29.74 in 10.0 mi WNW 3.5 mph - N/A   Overcast
11:35 AM 47.8 °F - 38.1 °F 69% 29.73 in 10.0 mi WNW 6.9 mph - N/A   Scattered Clouds
11:56 AM 48.6 °F - 37.0 °F 64% 29.73 in 10.0 mi NW 6.9 mph - N/A   Scattered Clouds
12:15 PM 49.3 °F - 37.8 °F 65% 29.73 in 10.0 mi WNW 6.9 mph - N/A   Scattered Clouds
12:35 PM 50.2 °F - 37.4 °F 62% 29.73 in 10.0 mi West 8.1 mph - N/A   Scattered Clouds
12:56 PM 49.5 °F - 36.7 °F 61% 29.72 in 10.0 mi West 5.8 mph - N/A   Scattered Clouds
1:15 PM 50.0 °F - 36.7 °F 60% 29.72 in 10.0 mi WNW 6.9 mph - N/A   Clear
1:35 PM 50.2 °F - 36.3 °F 59% 29.71 in 10.0 mi WNW 8.1 mph - N/A   Scattered Clouds
1:55 PM 51.6 °F - 35.8 °F 55% 29.70 in 10.0 mi WNW 8.1 mph - N/A   Scattered Clouds
2:15 PM 51.8 °F - 34.5 °F 52% 29.70 in 10.0 mi WSW 9.2 mph - N/A   Scattered Clouds
2:36 PM 52.5 °F - 32.4 °F 46% 29.69 in 10.0 mi West 10.4 mph - N/A   Clear
2:55 PM 51.8 °F - 34.0 °F 51% 29.69 in 10.0 mi WSW 10.4 mph - N/A   Clear
3:15 PM 51.4 °F - 34.0 °F 51% 29.69 in 10.0 mi West 10.4 mph 17.3 mph N/A   Clear
3:36 PM 51.4 °F - 34.2 °F 52% 29.68 in 10.0 mi WSW 12.7 mph - N/A   Clear
3:55 PM 51.3 °F - 33.1 °F 50% 29.68 in 10.0 mi WSW 10.4 mph 17.3 mph N/A   Clear
4:15 PM 52.0 °F - 34.0 °F 50% 29.68 in 10.0 mi WSW 10.4 mph - N/A   Clear
4:36 PM 51.1 °F - 32.5 °F 49% 29.68 in 10.0 mi WSW 8.1 mph - N/A   Scattered Clouds
4:55 PM 50.5 °F - 32.9 °F 51% 29.68 in 10.0 mi WSW 9.2 mph - N/A   Clear
5:16 PM 50.9 °F - 33.3 °F 51% 29.68 in 10.0 mi West 9.2 mph - N/A   Clear
5:35 PM 50.2 °F - 32.2 °F 50% 29.68 in 10.0 mi WSW 10.4 mph - N/A   Scattered Clouds
5:55 PM 48.9 °F - 33.6 °F 56% 29.68 in 10.0 mi WSW 6.9 mph - N/A   Scattered Clouds
6:16 PM 47.5 °F - 33.3 °F 58% 29.68 in 10.0 mi SW 3.5 mph - N/A   Scattered Clouds
6:35 PM 45.5 °F 43.2 °F 34.0 °F 64% 29.69 in 10.0 mi SSW 4.6 mph - N/A   Scattered Clouds
6:56 PM 44.6 °F - 34.3 °F 67% 29.69 in 10.0 mi Calm Calm - N/A   Scattered Clouds
7:15 PM 41.7 °F - 34.5 °F 76% 29.69 in 10.0 mi Calm Calm - N/A   Scattered Clouds
7:35 PM 39.4 °F - 34.9 °F 84% 29.69 in 10.0 mi Calm Calm - N/A   Clear
7:56 PM 39.6 °F - 36.5 °F 89% 29.69 in 10.0 mi Calm Calm - N/A   Mostly Cloudy
8:16 PM 43.9 °F 35.9 °F 38.3 °F 81% 29.71 in 7.0 mi West 18.4 mph 24.2 mph N/A Rain Rain
8:35 PM 42.1 °F 39.2 °F 38.8 °F 88% 29.72 in 5.0 mi West 4.6 mph 18.4 mph N/A Rain Light Rain
8:56 PM 42.8 °F 39.3 °F 38.7 °F 85% 29.71 in 10.0 mi North 5.8 mph - N/A Rain Light Rain
9:15 PM 41.4 °F - 38.3 °F 89% 29.71 in 10.0 mi Calm Calm - N/A   Mostly Cloudy
9:35 PM 40.3 °F 38.2 °F 38.3 °F 93% 29.71 in 10.0 mi SE 3.5 mph - N/A   Overcast
9:56 PM 39.7 °F - 38.3 °F 95% 29.71 in 10.0 mi Calm Calm - N/A   Overcast
10:15 PM 40.3 °F - 38.8 °F 95% 29.71 in 10.0 mi Calm Calm - N/A   Light Drizzle
10:35 PM 39.9 °F - 37.4 °F 91% 29.72 in 2.0 mi Calm Calm - N/A Rain Light Rain
10:56 PM 37.9 °F 35.5 °F 36.0 °F 93% 29.72 in 10.0 mi North 3.5 mph - N/A Rain Light Rain
11:15 PM 40.5 °F 37.3 °F 39.0 °F 95% 29.72 in 5.0 mi WNW 4.6 mph - N/A Rain Rain
11:35 PM 40.6 °F 38.6 °F 37.8 °F 89% 29.70 in 7.0 mi ENE 3.5 mph - N/A Rain Light Rain
11:55 PM 39.9 °F 37.8 °F 37.4 °F 91% 29.70 in 10.0 mi ESE 3.5 mph - N/A   Mostly Cloudy